Location: Ladron Peak
(34.4342°N, 107.0845°W)
Time: 00:12:09
(UTC+00:00)

Daily predictions for brighter satellites

Satellite Brightness Start Highest point End
(mag) Time Altitude Azimuth Time Altitude Azimuth Time Altitude Azimuth
CZ-4B DEB 4.3 02:42:31 10° SSE 02:47:52 61° ENE 02:53:14 10° N
Cosmos 1461 4.1 02:45:45 10° SW 02:49:19 43° WNW 02:53:00 10° NNE
Resurs 01 Rocket 1.9 02:45:13 10° S 02:49:34 73° WSW 02:53:57 10° NNW
PAYLOAD B 4.5 02:49:34 10° SSE 02:55:01 56° ENE 03:00:29 10° N
GENESIS II 3.6 02:52:11 10° NW 02:55:03 69° WSW 02:57:52 10° SSE
Cosmos 1624 Rocket 4.0 02:50:12 10° NNW 02:55:30 78° ENE 03:00:47 10° SSE
SJ-6B 4.2 02:52:35 10° SSW 02:56:06 37° W 02:59:37 10° NNW
ADEOS 3.6 02:51:55 10° SSE 02:57:04 67° ENE 03:02:14 10° N
Cosmos 1371 Rocket 4.0 02:51:59 10° NNW 02:57:18 81° ENE 03:02:31 10° SSE
Okean 3 Rocket 3.6 02:52:47 10° N 02:57:19 87° E 03:01:49 10° S
CZ-4B R/B 3.6 02:53:01 10° SE 02:58:02 44° ENE 03:03:01 10° N
Cosmos 2056 Rocket 3.5 02:54:01 10° NNW 02:59:10 87° ENE 03:04:15 10° SSE
ERS-1 Rocket 4.4 02:57:12 10° ESE 03:00:55 21° ENE 03:04:38 10° NNE
Delta 2 Rocket 3.2 03:01:53 10° W 03:05:47 89° S 03:09:55 10° ESE
CSL-04 Rocket 3.6 03:07:12 10° SSE 03:12:28 87° ENE 03:17:45 10° NNW
Cosmos 2333 Rocket 4.5 03:08:39 10° NW 03:12:48 21° W 03:16:57 10° SSW
Cosmos 2219 Rocket 2.9 03:08:32 10° NNW 03:13:55 51° WSW 03:19:17 10° S
CSL-04 Debris 4.2 03:08:35 10° SSE 03:14:01 89° E 03:19:29 10° NNW
OAO 3 Rocket 4.0 03:10:27 10° W 03:14:56 38° SSW 03:18:43 14° SE
Cosmos 1066 Rocket 4.3 03:13:26 10° S 03:19:15 87° E 03:25:08 10° N
NOSS 3-2 (C) 4.3 03:12:07 10° NNW 03:20:04 78° ENE 03:28:26 13° SE
Okean-O 3.7 03:19:43 15° ESE 03:22:36 29° ENE 03:26:22 10° NNE
Feng Yun 1-1 Rocket 4.4 03:17:45 10° SSE 03:23:38 88° ENE 03:29:36 10° NNW
Cosmos 1605 Rocket 4.1 03:18:49 10° N 03:24:50 57° E 03:30:23 12° SSE
Meteor PRIRODA 3.7 03:23:51 19° SE 03:25:27 37° ENE 03:28:10 10° N
Cosmos 1908 4.3 03:25:52 10° NNW 03:28:48 34° W 03:31:43 10° SSW
NOSS 2-2 (E) 4.3 03:25:26 10° NNW 03:29:54 56° ENE 03:34:31 18° SE
Cosmos 2237 Rocket 3.3 03:27:34 10° N 03:32:31 30° ENE 03:35:58 17° ESE
Cosmos 1328 Rocket 4.0 03:33:15 17° SSE 03:36:15 41° E 03:40:22 10° NNE
Cosmos 1408 Rocket 4.2 03:32:35 10° NNW 03:36:46 54° W 03:40:56 10° S
Sich 1 3.7 03:33:00 10° NNW 03:37:02 51° W 03:41:04 10° S
Meteor 2-10 Rocket 4.5 03:32:31 10° N 03:37:38 35° ENE 03:40:37 20° SE
ARIANE 6 FM1 Upper Stage 4.1 03:35:00 10° N 03:38:30 26° NE 03:40:44 17° E
Cosmos 1500 Rocket 3.9 03:34:41 10° NNW 03:39:05 65° W 03:43:26 10° S
Cosmos 1110 Rocket 4.0 03:35:13 10° NNW 03:40:25 68° ENE 03:43:56 20° SSE
Cosmos 1818 3.5 03:37:22 10° SSW 03:42:45 77° ESE 03:48:12 10° NNE
Cosmos 1331 Rocket 4.0 03:39:03 10° NNW 03:44:10 67° ENE 03:47:27 22° SSE
MOS 1 4.3 03:40:37 15° SSE 03:45:28 85° ENE 03:51:10 10° NNW
Cosmos 614 Rocket 3.9 03:43:46 10° SSW 03:48:56 81° ESE 03:54:05 10° NNE
CZ-4 R/B 3.8 03:49:16 10° SW 03:51:51 17° W 03:54:26 10° NW
Ariane Rocket 4.5 03:50:19 18° E 03:52:14 22° ENE 03:56:04 10° NNE
COSMOS 2428 2.9 03:47:08 10° NNW 03:52:48 68° WSW 03:57:03 18° S
USA 305 4.3 03:49:43 10° WSW 03:53:25 37° NW 03:56:55 10° NNE
Cosmos 1300 2.3 03:52:57 10° NNW 03:56:03 71° W 03:57:21 31° S
USA 215 3.4 03:52:14 21° SSE 03:56:46 70° SW 04:03:18 10° NW
Cosmos 2297 Rocket 3.1 03:51:40 10° SW 03:57:09 51° WNW 04:02:40 10° N
Helios 1A 3.1 03:53:54 10° N 03:57:49 69° WNW 04:01:42 10° SSW
Sakura Rocket 3.6 03:54:27 10° WSW 03:58:13 39° S 03:59:33 31° SE
RESURS DK-1 2.5 03:59:43 35° SSE 04:00:51 45° ESE 04:04:42 10° NE
USA 186 4.4 04:01:52 10° WSW 04:03:03 12° W 04:04:15 10° WNW
CZ-4B R/B 4.2 03:58:57 13° S 04:03:15 50° W 04:08:16 10° NNW
Cosmos 1515 Rocket 4.3 04:02:43 31° ESE 04:03:26 33° E 04:07:25 10° NNE
Helios 1B rocket 3.3 04:05:20 18° SSW 04:07:36 39° W 04:11:04 10° NNW
Terra 1.7 04:07:24 29° S 04:09:49 87° W 04:14:32 10° NNW
Cosmos 1302 Rocket 4.4 04:05:41 10° N 04:10:47 49° ENE 04:12:39 34° ESE
CZ-4B R/B 4.2 04:08:53 15° SSW 04:11:11 29° W 04:14:17 10° NW
Cosmos 1437 Rocket 3.7 04:12:19 28° ENE 04:12:19 28° ENE 04:14:45 10° NNE
ATLAS 2A CENTAUR R/B 3.4 04:01:25 10° W 04:12:00 34° SSW 04:13:30 28° S
SPOT 5 4.3 04:09:32 10° SSW 04:13:25 30° W 04:17:29 10° NW
Meteor 1-13 Rocket 4.3 04:10:53 25° S 04:14:20 65° E 04:20:10 10° NNE
Okean O Rocket 2.4 04:13:02 20° SSW 04:15:38 45° W 04:19:46 10° NNW
Cosmos 1452 Rocket 3.8 04:13:22 10° NNW 04:18:34 65° WSW 04:21:11 29° S
Cosmos 1000 Rocket 4.4 04:15:54 23° S 04:20:01 80° E 04:26:18 10° N
NOSS 0 Rocket 4.3 04:14:08 10° NNW 04:20:14 60° WSW 04:23:41 26° S
IRS-1C Rocket 4.2 04:19:05 38° SE 04:20:54 58° ENE 04:26:04 10° N
SL-14 R/B 3.5 04:21:58 32° SSW 04:23:38 64° W 04:27:32 10° N
Cosmos 921 Rocket 3.7 04:20:03 12° SSW 04:23:47 52° WNW 04:28:00 10° N
Cosmos 2227 Rocket 2.5 04:20:08 10° SSW 04:25:43 67° WNW 04:31:21 10° NNE
SL-16 R/B 3.6 04:22:54 10° N 04:27:27 24° ENE 04:29:03 21° E
Cosmos 2263 Rocket 2.2 04:27:35 36° S 04:29:46 61° ESE 04:35:22 10° NNE
Spot 2 Rocket 3.4 04:28:13 40° S 04:30:04 85° WSW 04:35:10 10° NNW
Cosmos 2173 Rocket 3.9 04:27:41 10° N 04:33:50 71° E 04:35:57 42° SSE
SL-4 R/B 1.8 04:31:42 10° SW 04:35:51 82° SE 04:39:57 10° NE
ERS-1 Rocket 4.1 04:36:35 21° SSW 04:39:20 36° W 04:43:57 10° NNW
COSMOS 2455 2.8 04:35:09 10° NNW 04:41:12 80° ENE 04:42:58 48° SE
Cosmos 1980 4.0 04:37:18 10° NNW 04:42:52 60° WSW 04:44:46 39° SSW
Cosmos 2100 Rocket 3.9 04:43:55 10° N 04:50:05 81° W 04:52:13 43° S
Cosmos 1953 4.3 04:47:32 10° NNE 04:48:58 16° NE 04:48:58 16° NE
Cosmos 1455 3.8 04:48:13 10° NW 04:49:44 21° WNW 04:49:44 21° WNW
Cosmos 2219 3.1 04:49:35 44° S 04:51:31 82° ESE 04:57:17 10° NNE
COBE Rocket 4.2 04:48:01 10° NNE 04:52:34 50° E 04:52:34 50° E
Geosat 3.8 04:48:34 10° NNE 04:53:36 87° ESE 04:54:45 54° SSW
Cosmos 1725 Rocket 4.0 04:53:01 10° N 04:59:18 70° E 05:00:36 55° SE
Cosmos 2082 3.6 05:00:01 63° SSE 05:00:47 72° ESE 05:06:30 10° NNE
Lacrosse 4 Rocket 1.7 04:58:21 10° NNW 05:02:03 59° NNE 05:02:03 59° NNE
Cosmos 1140 Rocket 3.6 05:06:15 58° ENE 05:06:15 58° ENE 05:10:48 10° NNE
Meteor 2-16 Rocket 4.3 05:09:10 62° SE 05:09:47 66° E 05:15:48 10° NNE
Cosmos 2123 Rocket 4.5 05:09:52 31° SW 05:12:48 56° W 05:18:56 10° N
Cosmos 2237 Rocket 3.4 05:11:31 10° NW 05:16:27 32° WSW 05:17:47 28° SW
ARIANE 6 FM1 Upper Stage 4.4 05:14:02 10° WNW 05:16:51 25° W 05:16:51 25° W
ATLAS CENTAUR R/B 2.5 05:15:38 10° NW 05:18:01 36° NW 05:18:01 36° NW
Cosmos 1023 Rocket 4.3 05:19:33 84° N 05:19:33 84° N 05:24:30 10° NNE
Cosmos 407 Rocket 4.3 05:31:13 40° NE 05:31:13 40° NE 05:34:44 10° NNE
Cosmos 2084 Rocket 4.5 05:25:44 10° NNW 05:28:35 42° NNW 05:28:35 42° NNW
Ariane Rocket 4.0 05:30:24 36° WSW 05:30:49 36° W 05:35:30 10° NNW
GP-B 3.7 05:26:30 10° N 05:30:02 55° NNW 05:30:02 55° NNW
Cosmos 2061 Rocket 3.8 05:32:41 10° N 05:38:58 87° W 05:39:22 80° S
Cosmos 1844 Rocket 3.7 05:41:10 34° ENE 05:41:10 34° ENE 05:44:49 10° NE
Cosmos 909 Rocket 4.1 05:54:54 10° NNW 06:02:18 70° WSW 06:02:29 70° SW
SL-16 R/B 3.1 06:06:22 10° NW 06:10:54 39° W 06:10:54 39° W
USA 234 4.3 06:09:23 10° ENE 06:13:07 31° E 06:13:07 31° E
ASTEX 1 4.3 06:15:20 10° N 06:19:08 46° NW 06:19:08 46° NW
ARIANE 5 R/B 4.1 06:27:48 34° NNW 06:27:48 34° NNW 06:30:23 10° NNW
Cosmos 2344 4.3 06:19:08 10° NNW 06:27:51 67° ENE 06:31:58 43° ESE
Cosmos 1464 Rocket 4.1 06:24:02 10° N 06:29:42 67° NE 06:29:42 67° NE
Cosmos 1943 3.6 06:27:16 10° NNW 06:31:52 60° NNW 06:31:52 60° NNW
Cosmos 1763 Rocket 4.3 06:28:17 10° NNW 06:31:55 46° N 06:31:55 46° N
ATLAS 2AS CENTAUR R/B 3.0 06:34:36 58° E 06:34:36 58° E 06:40:37 10° NE
Cosmos 2034 Rocket 4.5 06:31:18 10° N 06:36:51 52° ENE 06:36:51 52° ENE
SJ 16-02 3.6 06:41:47 18° NE 06:41:47 18° NE 06:43:05 10° NNE
Cosmos 1603 4.2 06:45:21 10° NNW 06:49:53 55° NNE 06:49:53 55° NNE
Cosmos 1844 Rocket 4.4 07:22:47 22° WNW 07:23:30 23° WNW 07:27:56 10° N
BREEZE-M DEB (TANK) 4.0 07:32:37 42° NE 07:32:37 42° NE 07:38:37 10° NE
NOSS 3-1 (C) 4.4 07:32:33 10° NW 07:39:57 53° WSW 07:39:57 53° WSW
Cosmos 841 Rocket 4.4 07:43:46 10° NNW 07:47:23 45° NNW 07:47:23 45° NNW
SeaSat 1 3.7 07:55:41 34° NW 07:55:41 34° NW 07:58:28 10° NNW
USA 234 3.9 07:52:19 10° NNE 07:58:31 47° NW 08:00:27 37° W
USA 59 Rocket 1.9 07:55:56 10° NNW 07:57:41 27° NNW 07:57:41 27° NNW
IDEFIX/ARIANE 42P 3.9 08:00:56 10° NE 08:04:58 30° E 08:04:58 30° E
Cosmos 1833 Rocket 3.2 08:06:31 10° N 08:12:01 53° ENE 08:12:13 53° ENE
Cosmos 2279 Rocket 4.0 08:07:34 10° N 08:13:13 67° WNW 08:13:13 67° WNW
ATLAS 3B R/B 3.9 08:07:02 10° NNW 08:14:28 44° NE 08:21:28 10° ESE
SJ 16-02 3.9 08:18:21 13° NW 08:18:21 13° NW 08:19:37 10° NNW
CZ-2C R/B 3.5 08:18:00 10° N 08:22:29 55° NNW 08:22:29 55° NNW
NPP 4.5 08:19:07 10° NNE 08:24:05 41° E 08:24:05 41° E
ATLAS 2AS CENTAUR R/B 4.3 08:21:59 20° W 08:25:00 26° NW 08:30:42 10° N
MSX 4.3 08:20:55 10° NNE 08:26:28 49° E 08:26:34 49° ESE
NOSS 3-1 (A) 4.3 08:21:13 10° NW 08:28:52 53° WSW 08:29:00 53° WSW
Cosmos 2180 Rocket 4.4 08:24:25 10° N 08:30:21 73° WNW 08:30:21 73° WNW
Cosmos 1428 Rocket 4.3 08:30:22 79° ESE 08:30:34 80° E 08:36:40 10° N
Okean 2 Rocket 4.0 08:30:40 10° N 08:33:58 47° NNE 08:33:58 47° NNE
Resurs 1-4 Rocket 3.5 08:33:34 10° NE 08:37:58 27° E 08:38:42 26° ESE
Cosmos 1025 Rocket 4.0 08:40:45 43° N 08:40:45 43° N 08:43:38 10° N
Cosmos 2278 Rocket 2.1 08:40:12 82° NNW 08:40:12 82° NNW 08:45:43 10° NNE
CZ-2C R/B 3.1 08:41:49 50° NW 08:41:49 50° NW 08:45:59 10° NNW
Cosmos 2082 Rocket 4.4 08:38:19 10° N 08:42:40 22° ENE 08:46:59 10° ESE
Okean 1 Rocket 3.8 08:39:52 10° N 08:43:27 53° NNE 08:43:27 53° NNE
Cosmos 1943 Rocket 2.0 08:45:05 83° NNW 08:45:05 83° NNW 08:50:27 10° NNE
CZ-2D R/B 3.2 08:48:22 10° NNE 08:53:14 35° E 08:54:16 32° ESE
Cosmos 1975 Rocket 4.0 08:57:25 41° E 08:57:26 41° E 09:01:36 10° NNE
Cosmos 292 Rocket 3.8 09:03:21 74° E 09:03:21 74° E 09:08:00 10° NNE
USA 81 4.1 09:03:44 64° WNW 09:03:44 64° WNW 09:08:49 10° N
MOZ.5/SAFIR/RUBIN 5/SL-8 3.6 09:15:15 83° SE 09:15:23 86° ENE 09:19:59 10° NNW
Cosmos 1812 4.1 09:12:17 10° N 09:14:02 29° NNE 09:14:02 29° NNE
Cosmos 2369 Rocket 4.1 09:14:06 15° SE 09:16:53 21° E 09:21:02 10° NE
Cosmos 158 Rocket 3.7 09:12:40 10° NNW 09:17:43 87° WSW 09:18:07 76° S
H-2A R/B 2.3 09:16:20 10° N 09:19:43 55° NNW 09:19:43 55° NNW
ADEOS II 2.8 09:17:09 10° NNE 09:22:10 45° E 09:23:56 33° SSE
USA 229 DEB 4.0 09:15:32 10° NNW 09:23:20 89° ENE 09:31:39 10° SSE
USA 229 4.0 09:15:39 10° NNW 09:23:26 89° ENE 09:31:45 10° SSE
OAO 1 Rocket 4.3 09:23:46 56° W 09:24:55 87° N 09:30:16 10° E
Cosmos 1092 Rocket 4.1 09:24:42 49° WSW 09:25:57 57° W 09:32:10 10° N
Meteor 2-1 Rocket 4.2 09:20:08 10° N 09:26:06 78° W 09:27:46 49° S
COSMOS 2441 4.2 09:21:24 10° N 09:26:15 81° WNW 09:26:49 68° SW
Cosmos 1455 Rocket 2.8 09:25:45 10° N 09:30:05 82° W 09:30:09 82° WSW
FENGYUN 3A 4.0 09:37:21 10° N 09:42:32 50° WNW 09:43:45 42° WSW
IDEFIX/ARIANE 42P 3.8 09:40:32 10° NNW 09:44:50 27° WNW 09:45:40 25° W
Timation 1 Rocket 4.5 09:41:55 10° NNW 09:47:56 74° ENE 09:53:55 10° SSE
Envisat 3.3 09:42:57 10° NNE 09:47:58 62° E 09:50:20 31° S
Cosmos 2228 3.4 09:44:00 10° N 09:48:03 56° E 09:50:02 27° SSE
ATLAS 5 CENTAUR R/B 1.8 09:53:50 33° NW 09:53:50 33° NW 09:56:25 10° NNE
Cosmos 1833 Rocket 4.5 09:51:55 10° WNW 09:53:50 15° W 09:53:50 15° W
Atlas Centaur 2 3.3 09:52:24 32° SW 09:55:50 50° SSE 10:03:37 10° E
Cosmos 836 Rocket 4.5 09:51:36 10° NNW 09:56:52 84° ENE 10:01:37 13° SSE
H-2A R/B 3.7 09:53:26 10° NE 09:57:56 29° E 10:02:19 10° SSE
USA 281 3.5 09:56:08 10° NNE 10:02:39 62° ESE 10:07:17 20° S
ATLAS 3B R/B 3.4 09:58:06 10° NW 10:05:04 38° WSW 10:08:31 25° SSW
Cosmos 2098 Rocket 2.9 10:08:14 10° NNW 10:11:11 38° WNW 10:11:11 38° WNW
Chandra Rocket (1) 3.6 10:12:41 18° SSE 10:13:40 19° SE 10:18:16 10° E
Cosmos 1544 Rocket 3.4 10:09:49 10° N 10:14:08 89° E 10:17:08 19° S
Resurs 1-4 Rocket 3.1 10:13:05 10° N 10:17:40 31° WNW 10:19:44 24° WSW
COSMOS 2406 3.2 10:12:49 10° NNW 10:18:36 85° ENE 10:24:20 10° SSE
ALOS 2.7 10:15:39 10° N 10:19:59 44° WNW 10:21:50 29° SW
Cosmos 1777 Rocket 4.4 10:18:10 28° SW 10:20:31 46° WNW 10:25:35 10° N
NOSS 3-3 (A) 3.9 10:22:05 26° WSW 10:24:49 55° NW 10:30:32 10° NNE
Cosmos 2278 Rocket 4.4 10:23:42 10° WNW 10:24:56 11° NW 10:26:11 10° NW
Cosmos 2082 Rocket 2.5 10:21:29 10° NW 10:26:55 46° WSW 10:32:15 10° S
Cosmos 1656 Rocket 4.2 10:26:10 24° SW 10:29:15 45° WNW 10:34:39 10° N
Cosmos 1943 Rocket 4.4 10:28:31 10° WNW 10:29:26 10° NW 10:30:21 10° NW
Cosmos 1354 Rocket 4.2 10:28:44 24° SW 10:31:50 56° WNW 10:37:00 10° N
CZ-2D R/B 3.4 10:28:40 10° NNW 10:32:58 25° WNW 10:35:31 18° WSW
Meteor 1-28 Rocket 3.6 10:29:49 10° SSE 10:33:09 55° ENE 10:36:30 10° N
METEOR-M 4.1 10:29:57 10° N 10:35:18 76° WNW 10:39:39 16° SSW
AQUA 4.1 10:32:54 10° N 10:37:26 50° WNW 10:40:26 20° SW
CZ-2C R/B 3.3 10:34:01 10° NNE 10:38:28 44° E 10:43:00 10° S
SL-16 R/B 2.5 10:39:38 10° SSE 10:45:49 80° WSW 10:52:04 10° NNW
Cosmos 1862 3.8 10:42:21 10° S 10:45:58 54° E 10:49:36 10° NNE
Centaur AC-116 3.9 10:46:00 14° S 10:46:00 14° S 10:47:41 10° SE
ARGOS 4.2 10:48:57 10° NNE 10:54:05 44° E 10:59:13 10° S
Cosmos 2285 Rocket 4.2 10:49:45 14° SW 10:55:00 55° WNW 11:01:14 10° N
Cosmos 2369 Rocket 2.7 10:55:53 14° SW 11:00:29 45° WNW 11:05:57 10° N
ADEOS II 3.7 10:57:45 10° NNW 11:01:19 19° WNW 11:04:46 10° WSW
Cosmos 1726 Rocket 4.1 10:58:36 10° N 11:02:43 60° E 11:06:57 10° SSE
Cosmos 2297 4.4 11:00:47 13° SW 11:05:19 38° WNW 11:10:32 10° N
Cosmos 2058 3.8 11:05:13 12° SW 11:08:19 30° W 11:11:52 10° NNW
Helios 1A Rocket 2.8 11:06:22 10° SSE 11:09:54 75° ENE 11:13:28 10° N
OAO 1 Rocket 4.4 11:05:14 10° W 11:10:34 86° S 11:15:55 10° ESE
Cosmos 1933 4.4 11:07:03 10° N 11:10:46 46° E 11:14:29 10° SSE
Gbstr 26 Del rocket 4.3 11:05:40 12° SW 11:11:49 73° NW 11:19:27 10° NE
SL-4 R/B 4.2 11:09:18 10° NNW 11:12:29 25° NNE 11:15:32 10° E
BlueWalker 3 3.9 11:10:05 10° S 11:12:50 20° SE 11:15:34 10° ENE
Meteor 2-3 Rocket 4.1 11:07:30 10° S 11:13:09 73° E 11:18:55 10° NNE
Cosmos 1655 Rocket 4.4 11:10:14 10° SSW 11:16:13 45° W 11:22:18 10° N
ACS3 Solar Sail 4.3 11:12:56 10° NE 11:16:42 17° E 11:20:30 10° SE
Cosmos 1939 Rocket 3.8 11:16:38 10° NNE 11:20:11 44° E 11:23:45 10° S
CZ-4C R/B 3.6 11:18:07 10° SSE 11:21:15 23° ESE 11:24:47 10° ENE
Cosmos 1782 3.0 11:18:07 10° NNW 11:21:35 42° W 11:25:01 10° SSW
Cosmos 1400 Rocket 3.2 11:18:41 10° NNW 11:22:18 41° W 11:25:56 10° SSW
Cosmos 2315 Rocket 4.5 11:20:38 10° NNW 11:26:31 43° W 11:32:26 10° SSW
